This demonstration page uses our WeatherBlox Daily Observations layout. Learn more.

Left ArrowRight Arrow

Hourly Observations for August 14, 2022

Temp ( °F °C ) Dew Point ( °F °C ) Humidity (%) Winds ( mph kmh ) Pressure ( in mb ) Visibility ( mi km ) Precip ( " mm )
12:56 am 00:56 Clear 68 20 67 19.4 96 96 ENE 6 9 30.00 1016 10 16 0.00 0.00
1:56 am 01:56 Clear 68 20 66 18.9 93 93 E 7 11 29.99 1016 10 16 0.00 0.00
2:56 am 02:56 Clear 68 20 66 18.9 93 93 ESE 8 13 29.98 1015 10 16 0.00 0.00
3:56 am 03:56 Clear with Mist and Fog 65 18.3 64 17.8 97 97 E 6 9 29.98 1015 6 10 0.00 0.00
4:56 am 04:56 Clear with Mist and Fog 65 18.3 64 17.8 97 97 E 6 9 29.98 1015 5 8 0.00 0.00
5:56 am 05:56 Clear with Mist and Fog 64 17.8 63 17.2 96 96 ENE 5 7 29.98 1015 5 8 0.00 0.00
6:43 am 06:43 Clear with Mist and Fog 63 17 63 17 100 100 E 5 7 29.98 1015 3 4 0.00 0.00
6:56 am 06:56 Sunny with Mist and Fog 63 17.2 63 17.2 100 100 E 5 7 29.99 1016 3 4 0.00 0.00
7:39 am 07:39 Sunny with Mist and Fog 64 18 64 18 100 100 E 7 11 29.98 1015 3 5 0.00 0.00
7:56 am 07:56 Sunny with Mist and Fog 66 18.9 65 18.3 96 96 ESE 7 11 29.99 1016 4 6 0.00 0.00
8:56 am 08:56 Sunny 69 20.6 66 18.9 90 90 ENE 9 15 30.01 1016 10 16 0.00 0.00
9:14 am 09:14 Partly Cloudy 70 21 66 19 88 88 E 9 15 29.98 1015 10 16 0.00 0.00
9:23 am 09:23 Mostly Cloudy 72 22 66 19 83 83 E 12 19 29.97 1015 10 16 0.00 0.00
9:56 am 09:56 Cloudy 72 22.2 67 19.4 84 84 E 9 15 30.01 1016 8 13 0.00 0.00
10:20 am 10:20 Cloudy 73 23 66 19 78 78 E 14 22 29.95 1014 7 11 0.00 0.00
10:56 am 10:56 Cloudy 75 23.9 67 19.4 76 76 E 14 22 30.00 1016 8 13 0.00 0.00
11:46 am 11:46 Partly Cloudy 77 25 68 20 74 74 E 12 19 29.93 1014 9 14 0.00 0.00
11:56 am 11:56 Mostly Sunny 78 25.6 68 20 71 71 ESE 13 20 29.99 1016 10 16 0.00 0.00
12:56 pm 12:56 Sunny 81 27.2 69 20.6 67 67 ESE 14 22 29.97 1015 10 16 0.00 0.00
1:56 pm 13:56 Sunny 83 28.3 68 20 61 61 SE 15 24 29.96 1014 10 16 0.00 0.00
2:56 pm 14:56 Sunny 86 30 70 21.1 59 59 ESE 12 19 29.93 1014 10 16 0.00 0.00
3:56 pm 15:56 Sunny 87 30.6 70 21.1 57 57 E 14 22 29.94 1014 10 16 0.00 0.00
4:56 pm 16:56 Sunny 87 30.6 71 21.7 59 59 E 13 20 29.93 1014 10 16 0.00 0.00
5:56 pm 17:56 Sunny 87 30.6 70 21.1 57 57 E 15 24 29.91 1013 10 16 0.00 0.00
6:56 pm 18:56 Sunny 85 29.4 71 21.7 63 63 E 14 22 29.90 1013 10 16 0.00 0.00
7:56 pm 19:56 Sunny 81 27.2 69 20.6 67 67 E 14 22 29.89 1012 10 16 0.00 0.00
8:56 pm 20:56 Clear 77 25 68 20 74 74 E 15 24 29.90 1012 10 16 0.00 0.00
9:56 pm 21:56 Clear 75 23.9 66 18.9 74 74 E 10 17 29.91 1013 10 16 0.00 0.00
10:56 pm 22:56 Clear 75 23.9 65 18.3 71 71 E 14 22 29.93 1013 10 16 0.00 0.00
11:56 pm 23:56 Clear 74 23.3 64 17.8 71 71 E 14 22 29.92 1013 10 16 0.00 0.00

Powered by AerisWeather